VIASAT-3 F1

Last updated on Sun Dec 14 2025 00:02:53 GMT+0000 (Coordinated Universal Time)

1 56370U 23060A 25347.18612154 .00000000 00000+0 00000+0 0 9999 2 56370 0.0260 325.1656 0000474 141.8598 313.1298 1.00269401 9560
UTC large
Height (km)
Speed (km/s)
/
Latitude / Longitude
Inclination (degrees)
Orbital Period (minutes)
Azimuth
Elevation
Range (km)
Doppler Factor

Next 0 passes for location: London (51.5072 / 0.1276)

Sorry there are no passes over London.